Regional Weather Roundup
Issued by NWS

Home | Current Version | Previous Version | Graphics & Text | Print | Product List | Glossary On
Versions: 1 2 3 4 5 6 7 8 9 10 11 12 13 14 15 16 17 18 19 20 21 22 23 24 25 26 27 28 29 30 31 32 33 34 35 36 37 38 39 40 41 42 43 44 45 46 47 48 49 50
989
ASUS43 KIND 162209
RWRIN

WEATHER ROUNDUP FOR INDIANA
NATIONAL WEATHER SERVICE INDIANAPOLIS IN
600 PM EDT WED AUG 16 2017

NOTE: "FAIR" INDICATES FEW OR NO CLOUDS BELOW 12,000 FEET WITH NO
SIGNIFICANT WEATHER AND/OR OBSTRUCTIONS TO VISIBILITY.

* - STATION DOES NOT REPORT WEATHER SUCH AS PRECIPITATION OR FOG.

+ - STATION NOT QUALITY CONTROLLED BY THE NATIONAL WEATHER SERVICE.
    USE DATA WITH CAUTION...ESPECIALLY DEWPOINT AND RELATIVE
    HUMIDITY OBSERVATIONS.

INZ001>003-010>013-019-020-162300-
NORTHWEST INDIANA

CITY           SKY/WX    TMP DP  RH WIND       PRES   REMARKS
GARY /AIRPORT/ CLOUDY    86  64  48 S8        29.91S
KNOX *+        MOSUNNY   84  70  61 S7        29.93R
LA PORTE +     MOSUNNY   85  68  56 S6        29.94R
MICHIGAN CITY+ MOSUNNY   84  66  54 S6        29.92S
MONTICELLO +   MOSUNNY   85  69  57 S6        29.92S
RENSSELAER +   CLOUDY    82  66  57 S8        29.92S
VALPARAISO     SUNNY     86  69  56 S8        29.93S

$$

LMZ046-743>745-162300-
SOUTHERN LAKE MICHIGAN

STATION/POSITION TIME  TEMP    WIND        PRES    WAVE
                       AIR SEA DIR/SP/G            HT
                 (UTC) (F)     (DEG/KT/KT) (MB)    (FT)
BURNS HARBOR     2140   87     190/ 11/ 15 1013.2S
MICHIGAN CITY    2140   85     140/  9/ 11   N/A
5NW MICH CITY    2200   82 76  170/  8/ 12   N/A     1

$$

INZ004-005-014>016-021>024-162300-
NORTH CENTRAL INDIANA

CITY           SKY/WX    TMP DP  RH WIND       PRES   REMARKS
ELKHART        MOSUNNY   88  66  48 S12       29.93F
GOSHEN         MOSUNNY   88  65  46 SE9       29.94F
LOGANSPORT +   MOSUNNY   84  68  58 S6        29.94S
ROCHESTER +    MOSUNNY  N/A N/A N/A S7        29.95R
SOUTH BEND     SUNNY     87  67  51 SE10      29.94S
WARSAW +       MOSUNNY   86  66  51 S6        29.94F

$$

INZ006>009-017-018-025>027-162300-
NORTHEAST INDIANA

CITY           SKY/WX    TMP DP  RH WIND       PRES   REMARKS
AUBURN +       SUNNY     88  63  42 SE3       29.97S
FORT WAYNE     MOSUNNY   89  63  41 S7        29.95F
HUNTINGTON +   MOSUNNY   87  64  46 S5        29.95S
KENDALLVILLE + PTSUNNY   84  65  53 S5        29.96F

$$

INZ028-029-035-036-043>045-051>053-162300-
WEST CENTRAL INDIANA

CITY           SKY/WX    TMP DP  RH WIND       PRES   REMARKS
GREENCASTLE +  MOSUNNY   82  72  69 CALM      29.96S
LAFAYETTE      CLOUDY    86  71  60 S7        29.92S
TERRE HAUTE    MOSUNNY   85  73  67 S9        29.94S

$$

INZ030>032-037>040-046>048-054>057-064-065-162300-
CENTRAL INDIANA

CITY           SKY/WX    TMP DP  RH WIND       PRES   REMARKS
CP ATTERBURY + PTSUNNY   88  70  55 S7        29.96R
COLUMBUS       PTSUNNY   88  64  45 S7        29.95S
FRANKFORT +    PTSUNNY   87  73  63 SW3       29.97R HX  95
GREENWOOD *+   MOSUNNY   85  69  57 SW5       29.96S
INDIANAPOLIS   CLOUDY    87  71  58 SW9       29.94S
-EAGLE CREEK   SUNNY     88  68  51 S8        29.94S
KOKOMO +       MOSUNNY   85  73  67 SE6       29.96S
MARION +       MOSUNNY   84  68  58 S6        29.96S HAZE
MT COMFORT *+  MOSUNNY   86  72  62 S5        29.96F
SHELBYVILLE    MOSUNNY   87  69  54 S8        29.95S
ZIONSVILLE +   MOSUNNY   85  70  61 SW8       29.96S

$$

INZ033-034-041-042-049-050-058-059-162300-
EAST CENTRAL INDIANA

CITY           SKY/WX    TMP DP  RH WIND       PRES   REMARKS
MUNCIE         MOSUNNY   89  64  43 S10       29.96S
RICHMOND +     MOSUNNY   82  72  69 CALM      29.99S

$$

INZ060-061-067>069-081>083-085>088-162300-
SOUTHWEST INDIANA

CITY           SKY/WX    TMP DP  RH WIND       PRES   REMARKS
EVANSVILLE     CLOUDY    87  73  62 E6        29.94S
HUNTINGBURG +  CLOUDY    86  77  74 MISG      29.96S HX  97
WASHINGTON +   CLOUDY    85  71  61 MISG      29.95R

$$

INZ062-063-066-070>080-084-089>092-162300-
SOUTH CENTRAL AND SOUTHEAST INDIANA

CITY           SKY/WX    TMP DP  RH WIND       PRES   REMARKS
BEDFORD +      MOSUNNY   84  70  61 SW6       29.96S
BLOOMINGTON    MOSUNNY   87  71  58 SW10      29.97R
MADISON *+     SUNNY     90  64  43 S5        29.98S
NORTH VERNON + MOSUNNY   86  70  58 S6        29.96F
SEYMOUR +      MOSUNNY   90  70  51 SW8       29.95S HX  95

$$





USA.gov is the U.S. government's official web portal to all federal, state and local government web resources and services.